Weather Roundup
Issued by NWS Chicago, IL

Home | Current Version | Previous Version | Graphics & Text | Print | Product List | Glossary On
Versions: 1 2 3 4 5 6 7 8 9 10 11 12 13 14 15 16 17 18 19 20 21 22 23 24 25 26 27 28 29 30 31 32 33 34 35 36 37 38 39 40 41 42 43 44 45 46 47 48 49 50
000
NZUS59 KLOT 260903
HRRLOT

CHICAGO AREA WEATHER ROUNDUP
NATIONAL WEATHER SERVICE CHICAGO/ROMEOVILLE IL
400 AM CDT SUN MAR 26 2017

NOTE: "FAIR" INDICATES FEW OR NO CLOUDS BELOW 12,000 FEET WITH NO
SIGNIFICANT WEATHER AND/OR OBSTRUCTIONS TO VISIBILITY.

* THESE STATIONS ARE NOT UNDER NWS QUALITY CONTROL. THEY ALSO MAY NOT
  REPORT WEATHER SUCH AS PRECIPITATION OR FOG.

ILZ005-006-012>014-019>023-261000-
NORTHEAST ILLINOIS

CITY           SKY/WX    TMP DP  RH WIND       PRES   REMARKS
OHARE          CLOUDY    47  45  93 NE6       29.88F FOG
MIDWAY         LGT RAIN  48  48 100 VRB6      29.88F FOG
AURORA         CLOUDY    51  49  92 NE9       29.86F FOG
LANSING*       LGT RAIN  51  51 100 SE8       29.88F
JOLIET*        CLOUDY    55  54  97 SE7       29.86F FOG
WAUKEGAN       FOG       41  41 100 NE7       29.90F VSB 1/4
DUPAGE AIRPORT CLOUDY    48  48 100 E6        29.86F FOG
WHEELING       CLOUDY    44  44 100 E5        29.90F FOG
MORRIS*        CLOUDY    54  52  95 E8        29.84S FOG
$$

WIZ051-052-058>065-066-070>072-261000-
SOUTHEAST WISCONSIN

CITY           SKY/WX    TMP DP  RH WIND       PRES   REMARKS
MILWAUKEE      LGT RAIN  39  38  96 NE12      29.94F FOG
KENOSHA*       FOG       41  41 100 E9        29.92F VSB 1/4
RACINE*        FOG       39  38  96 NE9       29.94F VSB 3/4
WEST BEND      RAIN      37  37 100 E7        29.95F VSB 3/4
$$

INZ001>003-010>013-019-020-261000-
NORTHWEST INDIANA

CITY           SKY/WX    TMP DP  RH WIND       PRES   REMARKS
GARY*          LGT RAIN  53  51  93 SE9       29.89F
MICHIGAN CITY* NOT AVBL
RENSSELAER*    NOT AVBL
VALPARAISO     LGT RAIN  50  49  96 E10       29.91F FOG
$$

LMZ740>746-261000-
SOUTHERN LAKE MICHIGAN

STATION/POSITION TIME  SKY/WX   TEMP WIND        PRES    VSBY
                                AIR  DIR/SP/G
                 (UTC)          (F)  (DEG/KT/KT) (MB)    (MI)
HARRISON CRIB    0840            43  100/ 10/ 10   N/A
BURNHAM HARBOR   0900            42   50/  2/  4   N/A
CALUMET HARBOR   0830            44   80/  4/  5 1011.8F
BURNS HARBOR     0840            52  130/ 14/ 18 1012.9F
MICHIGAN CITY    0840            48  110/ 12/ 14   N/A
$$

ABBREVIATIONS USED IN REMARKS
   TC - TEMPERATURE IN CELSIUS
  WCI - WIND CHILL INDEX
   HX - HEAT INDEX
  VSB - VISIBILITY
$$




USA.gov is the U.S. government's official web portal to all federal, state and local government web resources and services.